Location: Campillo
(40.8621°N, 4.2488°W)
Time: 17:04:54
(UTC+00:00)

Cosmos 1777 Rocket - Pass Details

Date: 25 September 2021
Orbit: 759 x 775 km, 74.0° (Epoch: 23 October)

Event Time Altitude Azimuth Distance (km) Brightness Sun altitude
Rises 05:17:35 0° 343° (NNW) 3,227 7.1 -10.3°
Reaches altitude 10° 05:19:59 10° 347° (NNW) 2,297 6.4 -9.8°
Maximum altitude 05:25:09 64° 68° (ENE) 842 4.5 -8.8°
Drops below altitude 10° 05:30:17 10° 150° (SSE) 2,284 6.8 -7.9°
Sets 05:32:40 0° 154° (SSE) 3,206 7.5 -7.4°
